GEFSSGP_500_meanwind_174.txt.gz
Wind_Speed
10 9 9 9 9 8 7 6 6 7 7 7 7 6 6 5 5 5 4 4 6 6 6 6 5 4 3 2 2 3 3 4 4 5 6 6 6 6 6 6 6 5 5 5 4 4 4 4 4
11 11 11 10 10 9 9 8 7 8 8 7 7 7 6 5 5 5 5 4 5 6 7 7 5 4 3 2 1 2 2 3 4 4 5 5 6 7 7 7 6 6 6 5 5 5 5 4 5
12 12 12 11 11 10 10 9 8 9 9 8 7 7 6 6 5 5 6 5 5 5 6 6 5 4 3 2 1 0 1 2 3 4 5 5 6 6 7 7 6 6 6 6 6 6 6 6 6
13 13 13 12 11 11 10 10 10 9 9 9 8 7 6 7 6 5 6 6 6 6 6 6 5 4 3 2 1 0 1 2 3 4 5 6 6 7 7 7 7 7 7 7 7 6 6 7 6
14 14 14 13 12 11 11 10 10 10 11 10 9 8 7 7 6 5 6 6 7 7 6 6 5 5 4 3 1 0 1 2 3 4 5 6 7 7 8 7 7 7 8 7 7 6 7 6 6
14 14 14 13 12 12 11 11 11 12 12 10 9 9 9 8 7 6 6 7 8 8 7 7 6 4 4 3 2 0 1 2 3 4 4 5 6 7 8 8 8 8 7 7 6 6 6 6 6
15 14 14 13 13 13 12 12 11 12 11 11 11 10 9 8 8 8 8 8 8 9 8 7 6 5 4 3 2 0 1 2 3 4 4 6 7 7 8 8 8 8 7 6 6 7 7 7 7
14 14 14 14 14 13 13 13 13 13 12 11 11 10 10 9 9 9 9 10 10 10 9 8 7 6 5 4 3 1 1 3 3 4 5 6 7 7 8 8 8 8 7 6 6 6 7 7 7
14 14 15 14 13 13 13 13 13 13 11 11 11 10 10 10 9 9 10 11 10 10 10 9 8 7 6 5 3 2 1 2 4 4 5 6 7 8 8 8 8 7 6 6 6 6 6 7 8
13 15 15 14 14 13 13 13 12 12 12 12 11 11 11 11 10 10 11 11 11 10 10 10 9 7 7 5 4 3 2 2 3 4 5 6 7 7 8 8 8 6 6 6 6 6 7 7 8
12 14 14 14 14 13 13 13 13 13 12 12 11 12 12 13 12 11 11 11 12 11 11 10 9 8 7 6 4 3 2 3 4 4 5 6 7 7 8 8 7 6 6 6 6 6 6 7 7
12 13 13 13 14 14 14 13 14 13 12 11 11 12 13 13 13 11 12 12 12 10 10 10 9 9 7 6 5 3 3 3 4 5 5 6 7 7 7 7 6 6 6 6 6 6 6 6 6
13 13 13 13 14 14 14 14 14 13 13 12 12 13 14 13 13 12 12 12 12 11 10 10 9 9 8 6 5 4 4 4 4 4 5 6 7 7 7 6 6 6 6 6 6 6 6 5 6
13 14 14 14 14 14 15 15 14 14 14 13 13 14 14 14 14 13 12 12 12 12 11 10 9 9 8 7 5 4 4 4 4 4 5 6 7 7 6 7 7 7 6 6 6 6 5 4 4
14 14 15 14 14 14 14 14 15 15 15 14 14 14 15 14 14 13 13 12 12 11 11 10 9 9 8 7 5 4 4 4 4 5 6 6 7 6 6 7 7 7 6 6 6 5 5 4 3
14 13 14 13 13 14 14 14 15 15 14 14 13 14 15 15 14 14 13 12 12 11 10 10 8 7 7 6 5 4 4 4 4 6 6 7 7 6 6 6 7 6 6 5 5 4 4 3 2
13 13 13 13 13 12 13 13 14 15 15 14 13 13 13 14 14 14 14 13 13 12 10 9 8 7 7 6 5 5 4 4 4 5 6 6 6 6 6 6 6 6 5 5 4 4 4 3 2
11 12 12 12 12 12 12 13 14 15 15 14 14 13 13 14 14 14 14 14 13 12 10 9 8 8 7 7 6 5 4 4 4 4 5 6 6 6 5 5 6 6 5 5 5 4 4 3 2
10 11 11 12 11 12 12 13 15 16 16 16 15 14 15 15 14 14 14 13 13 13 11 10 9 8 7 7 6 5 4 4 4 4 4 5 5 5 5 5 5 5 5 5 4 4 3 3 2
10 11 11 12 12 12 13 13 15 16 17 16 16 16 16 15 15 15 15 14 14 13 12 11 10 9 7 7 7 6 5 4 3 3 4 4 4 4 4 4 5 4 5 4 4 4 4 3 2
9 10 11 12 12 13 13 13 13 15 16 16 16 16 16 16 15 15 15 15 15 14 13 12 10 10 8 7 7 6 5 4 3 3 3 3 3 4 4 4 4 4 4 4 4 4 4 4 3
10 10 10 11 11 12 12 12 13 14 15 15 15 17 16 16 16 16 16 16 16 15 14 13 11 10 9 8 7 6 6 5 4 3 3 3 3 3 3 3 3 4 4 4 4 4 4 3 3
10 10 10 10 11 11 12 12 13 14 14 14 15 16 16 17 16 16 16 17 17 15 15 13 13 11 10 8 7 7 6 5 5 3 3 2 2 2 3 3 3 3 4 4 4 4 3 3 2
10 10 10 10 10 10 11 11 12 13 13 14 15 15 16 16 17 17 17 17 17 16 15 14 13 11 10 9 8 7 7 6 5 4 3 3 2 2 2 2 2 3 3 4 3 3 3 3 3
8 10 10 10 10 10 10 11 11 12 13 14 14 14 15 16 17 16 17 17 17 16 15 15 13 12 11 10 9 8 7 7 6 5 4 4 3 2 2 3 3 3 3 3 3 3 3 3 2
8 9 10 10 10 9 10 10 11 13 13 14 14 14 15 16 16 16 17 18 17 17 16 16 14 13 11 11 10 9 7 7 7 6 5 4 4 3 3 3 3 3 3 4 4 3 3 3 3
8 9 9 9 9 9 9 9 10 12 13 14 14 14 15 15 16 16 16 17 17 17 17 17 16 14 13 12 11 9 8 8 7 7 6 5 4 4 4 4 4 4 4 4 4 4 4 4 3
8 8 9 9 9 9 8 8 10 12 13 13 14 15 15 15 15 15 16 18 18 18 18 17 16 15 14 13 11 10 9 8 8 8 7 5 5 4 5 5 5 5 5 5 5 4 4 3 3
9 9 9 9 10 10 9 8 9 10 12 12 14 14 15 15 15 16 17 17 18 18 18 18 16 15 14 13 12 11 11 9 8 8 7 6 6 5 6 6 6 6 6 6 5 5 4 4 3
10 10 10 10 10 10 10 9 10 10 11 12 14 14 14 14 15 16 17 18 18 18 18 17 16 16 15 14 13 13 11 10 9 9 8 7 7 7 7 7 7 7 7 6 6 5 5 5 5

GEFSSGP_500_meanwind_180.txt.gz
Wind_Speed
9 9 9 9 8 8 9 8 8 8 9 10 10 10 9 9 9 9 8 8 8 7 8 8 7 7 6 5 4 4 4 3 3 4 4 3 3 3 3 2 2 1 0 0 1 1 2 2 3
9 9 9 9 9 9 9 9 9 9 9 10 10 10 9 10 10 9 9 9 9 8 9 8 7 6 5 5 4 3 2 3 3 3 3 3 3 3 3 2 2 2 1 1 2 2 3 3 3
10 10 9 10 10 10 9 9 9 9 10 11 11 10 10 10 10 10 10 9 9 9 9 8 7 6 5 5 4 3 2 2 2 2 3 3 2 3 3 3 2 2 2 2 3 3 4 4 4
10 10 10 11 11 11 10 10 10 10 11 11 12 11 10 10 10 10 10 9 9 10 9 8 7 6 5 4 3 2 2 1 1 2 2 2 3 3 4 3 3 3 3 3 3 4 4 4 4
11 11 11 11 11 11 12 12 12 11 11 11 12 12 11 11 10 10 10 10 10 11 10 9 8 7 6 4 4 3 2 1 1 2 3 3 3 4 4 4 3 3 3 4 4 4 4 4 5
12 12 12 12 12 12 12 12 13 13 12 12 12 12 11 11 11 10 10 10 11 11 11 9 8 6 5 5 4 3 3 2 1 2 3 4 4 4 4 4 4 4 3 3 4 4 5 5 5
12 13 13 12 12 12 12 12 13 13 12 12 13 12 12 11 11 11 10 10 11 12 11 9 9 8 6 6 5 3 2 1 1 2 3 4 4 4 5 5 4 4 4 4 4 4 5 5 6
13 13 13 13 13 13 12 12 13 14 13 13 13 13 13 12 11 10 10 10 12 12 11 11 10 9 7 6 5 3 2 1 1 2 3 3 4 5 5 5 5 4 4 4 4 5 6 6 6
12 13 13 14 13 13 13 13 13 14 14 13 13 13 13 12 11 11 11 11 12 12 12 11 10 9 8 7 5 4 2 1 1 1 3 4 4 5 5 6 6 5 4 4 4 5 6 6 6
12 13 14 14 14 14 14 13 12 13 13 13 13 13 12 12 13 13 12 12 13 13 12 12 10 9 8 7 6 4 3 2 2 2 4 4 5 5 6 6 6 5 5 4 4 5 6 6 6
12 12 13 14 15 14 14 14 13 13 13 14 14 13 12 12 13 14 13 13 13 13 13 12 11 10 8 8 6 5 3 2 2 3 4 5 5 5 6 6 5 5 5 5 5 6 6 6 7
11 12 13 13 14 14 14 14 14 14 14 14 15 14 13 12 13 13 13 14 13 14 13 12 12 10 9 7 6 5 4 3 3 4 4 5 5 5 6 6 5 5 5 5 5 5 6 6 6
11 11 13 13 14 14 14 14 14 14 14 15 15 15 14 13 13 14 15 15 15 14 13 12 12 11 9 8 6 5 4 4 4 4 4 5 5 5 6 5 5 5 5 5 5 6 6 6 6
11 12 13 13 14 14 14 15 15 15 14 15 15 14 14 14 13 14 14 14 15 14 13 13 12 11 10 9 7 6 5 4 4 4 5 5 5 5 6 5 5 5 5 5 6 6 6 6 6
12 12 13 14 14 14 14 15 15 16 15 15 15 14 13 14 14 14 14 14 15 14 13 13 13 12 10 10 8 6 5 4 4 4 5 5 5 5 5 5 5 5 5 6 6 6 6 5 5
11 12 13 14 14 14 15 15 16 16 16 16 15 15 14 15 15 15 14 14 14 14 13 13 13 12 10 10 8 7 6 4 5 5 5 5 5 5 5 5 5 5 5 6 6 5 5 4 4
11 12 13 14 14 14 15 15 16 16 17 16 16 16 15 15 16 15 15 14 14 14 13 12 12 12 11 9 8 7 6 5 5 5 5 4 4 5 5 5 5 5 5 5 5 4 4 3 3
11 12 13 13 14 14 15 16 16 17 16 16 16 16 15 15 16 16 15 15 15 14 13 12 11 11 10 9 8 7 6 5 5 5 4 4 4 4 4 5 5 5 5 5 4 3 3 3 2
10 11 12 13 13 14 14 15 17 17 16 16 16 17 17 16 16 16 16 16 15 14 14 12 12 11 10 9 9 8 7 6 5 5 5 4 4 4 4 4 5 4 4 4 3 3 3 3 2
11 11 12 13 13 12 13 14 15 16 16 16 16 16 16 17 17 17 17 17 16 15 14 13 12 11 10 10 9 8 7 6 6 5 4 4 4 5 4 4 4 4 3 3 2 2 3 3 2
10 11 12 12 12 13 13 13 14 15 16 16 16 16 17 17 17 17 17 17 16 15 15 14 13 12 11 10 9 9 7 7 6 5 4 4 4 4 3 3 3 3 2 2 2 2 2 2 1
10 10 11 12 12 13 13 13 14 14 15 17 17 17 17 17 17 18 18 18 17 16 16 15 14 13 11 11 10 9 8 7 7 6 5 4 3 3 3 3 3 2 2 2 2 2 2 2 1
10 10 10 10 11 12 13 12 13 14 15 16 16 17 18 18 18 18 18 18 17 17 16 15 14 14 12 11 10 9 9 7 7 6 5 4 4 3 3 3 3 2 2 2 3 2 2 2 1
9 9 10 10 10 11 12 12 12 13 14 15 15 16 17 18 18 18 18 18 18 17 16 15 14 14 13 12 11 10 9 8 8 7 6 5 5 4 4 3 3 3 3 3 2 2 1 1 1
9 9 9 10 10 11 11 12 13 13 13 14 14 15 17 18 18 18 18 18 18 17 16 16 14 14 14 13 12 11 10 9 9 8 7 6 6 5 4 4 4 4 4 3 2 2 2 2 2
10 10 10 9 10 10 11 12 13 13 13 13 14 15 15 17 17 17 18 18 18 18 17 16 15 14 14 14 12 12 10 10 9 8 7 7 6 5 5 4 4 4 4 5 4 4 3 3 3
10 10 10 11 10 9 10 10 11 12 12 12 13 14 15 15 16 16 17 17 17 17 17 16 16 15 15 15 14 12 11 11 10 9 8 7 7 6 5 5 5 4 4 3 3 3 4 4 4
9 9 11 10 10 9 9 9 11 12 13 13 13 14 15 15 15 16 17 17 17 17 17 17 17 16 15 15 14 13 12 12 12 10 9 9 8 7 7 6 6 5 4 4 4 4 5 5 5
9 9 9 10 10 10 9 10 11 12 13 14 14 14 14 14 14 14 15 17 18 18 17 18 17 16 16 15 15 14 13 13 12 11 9 9 9 9 8 7 6 6 6 6 6 6 6 6 6
9 10 10 10 10 10 10 10 11 12 13 13 13 13 14 14 14 14 15 16 17 18 17 17 17 16 16 16 16 15 14 13 13 12 11 10 10 10 9 8 7 7 7 7 7 7 7 6 6

GEFSSGP_500_meanwind_186.txt.gz
Wind_Speed
8 8 8 9 9 9 8 9 8 9 10 10 11 10 9 9 9 8 8 8 7 7 7 7 7 7 7 6 5 3 2 2 1 1 1 1 1 1 1 1 1 1 1 1 1 1 1 1 1
9 9 9 9 10 10 10 11 10 10 11 11 12 11 10 10 9 9 8 8 7 8 7 8 8 7 7 6 5 3 2 1 0 0 0 0 1 1 1 2 2 2 2 2 2 2 2 2 2
9 10 9 10 11 11 11 12 11 10 11 12 12 12 11 10 10 9 9 9 8 8 8 8 9 8 7 6 5 3 2 1 0 1 1 1 2 2 2 2 3 3 3 3 3 3 3 3 4
10 10 10 11 11 12 11 11 11 12 12 13 12 12 11 11 11 10 9 9 9 8 8 9 8 7 7 5 4 4 2 1 0 1 2 1 2 3 3 3 3 3 3 3 3 3 4 4 4
11 11 11 12 12 12 11 12 12 12 12 13 13 12 12 11 11 11 10 10 10 9 9 9 8 7 6 5 4 4 3 2 1 1 1 2 3 3 4 3 3 3 3 3 3 3 4 4 4
11 11 11 12 12 12 12 13 14 14 14 13 13 12 12 12 12 11 11 12 11 10 10 9 8 7 6 5 4 3 2 2 2 2 2 3 4 4 4 3 3 3 3 3 3 4 4 5 5
12 12 12 12 12 12 12 12 13 13 13 13 13 12 12 12 12 12 13 13 12 12 11 9 8 7 6 5 4 4 3 2 2 3 3 3 4 5 4 4 3 3 3 4 4 5 5 6 6
12 12 13 13 12 13 13 13 14 14 14 14 14 13 13 13 13 13 12 13 12 12 11 10 8 7 6 6 5 4 3 2 2 3 4 4 5 5 5 5 5 4 4 4 5 4 5 5 6
12 13 14 14 13 14 14 13 14 15 14 14 13 13 13 14 14 13 12 12 12 12 11 10 9 7 7 6 5 4 3 2 2 3 4 5 5 5 5 5 5 4 4 4 4 4 5 6 6
13 13 14 13 13 13 13 13 14 15 15 15 14 13 13 13 13 13 13 13 13 12 12 10 9 8 8 6 5 4 3 2 3 4 5 6 6 5 5 5 5 5 4 4 4 5 5 6 6
12 13 13 12 13 13 13 13 13 14 15 15 14 13 13 13 13 14 13 13 13 12 12 11 10 9 8 7 5 4 3 2 3 4 5 6 6 6 6 6 5 5 5 5 6 6 6 6 6
13 14 13 13 14 14 14 14 14 14 14 14 15 14 14 15 14 14 13 13 13 12 11 11 10 10 8 7 5 4 3 2 3 4 5 5 6 6 6 6 5 5 6 6 6 6 6 6 6
11 12 13 13 14 14 15 15 14 14 14 14 14 15 15 14 14 15 14 13 13 12 11 11 10 9 8 7 6 5 3 3 3 4 4 5 6 6 6 6 6 6 6 7 7 6 6 6 6
10 11 12 13 13 14 14 15 15 15 14 14 13 14 15 14 15 15 14 13 13 13 12 11 10 10 8 7 6 5 4 4 4 4 5 5 6 6 6 6 6 6 7 7 7 7 6 6 5
10 11 12 12 12 12 13 14 16 16 15 14 14 14 14 14 15 14 14 14 14 13 13 12 11 10 9 8 6 6 5 4 4 5 5 5 6 6 6 6 6 7 7 8 7 6 6 6 6
10 10 11 12 12 12 13 13 14 15 15 15 15 15 14 13 14 13 13 14 14 14 13 13 12 10 10 8 7 6 5 4 4 5 5 6 6 6 6 6 7 7 7 7 7 6 6 6 6
10 10 11 11 12 12 13 14 14 15 15 15 15 15 14 14 13 13 13 13 13 13 12 12 12 11 10 9 7 6 5 5 5 5 6 6 6 6 6 6 7 7 7 7 7 7 6 6 5
10 11 11 12 12 13 13 13 14 14 14 14 14 14 14 14 14 13 12 12 12 11 12 12 12 10 9 9 8 7 6 6 5 5 6 6 6 6 6 6 7 7 7 7 6 6 6 6 5
10 11 11 12 12 12 13 14 14 14 14 14 14 15 14 13 14 14 13 12 11 11 11 11 10 10 9 9 8 8 7 6 6 6 6 6 6 6 6 6 7 7 6 6 6 6 6 6 5
11 11 11 12 12 13 14 15 15 14 14 14 14 15 15 14 14 14 14 13 12 11 11 11 10 9 9 9 8 8 8 7 7 7 7 6 6 6 6 6 6 6 6 6 6 6 5 5 4
11 12 12 12 12 13 14 15 15 14 14 14 15 15 15 15 14 14 14 13 13 12 11 11 10 9 9 9 9 8 8 7 7 7 7 7 6 6 6 6 5 6 6 6 6 6 5 4 4
11 11 11 11 12 13 14 13 14 14 14 15 15 15 15 15 14 13 14 14 14 13 12 12 11 10 10 10 10 9 8 8 8 7 7 7 7 6 6 6 6 6 6 6 6 6 5 4 4
11 11 11 11 12 12 13 13 13 14 14 14 14 14 14 15 15 15 14 15 15 14 13 13 12 12 11 11 11 10 9 8 8 8 7 7 7 7 6 6 6 6 6 6 6 5 5 5 4
10 11 10 10 11 12 12 13 12 13 13 13 13 14 14 15 16 16 16 16 16 15 14 13 12 12 12 12 11 10 10 9 8 7 7 7 7 7 6 6 6 6 6 6 5 5 5 5 5
10 9 9 9 10 10 11 12 13 13 13 13 14 14 14 14 16 16 16 16 16 15 15 14 13 12 12 11 11 10 9 9 9 8 7 6 6 7 7 7 6 6 6 6 6 6 6 5 5
9 9 9 9 9 9 11 13 13 13 14 14 14 14 15 15 15 16 15 16 16 15 15 14 14 13 12 11 10 10 10 10 9 8 7 7 6 7 6 6 6 6 6 6 6 6 6 6 6
10 10 9 10 11 11 12 13 13 14 14 13 13 14 14 15 14 14 14 14 15 16 15 14 13 12 12 12 11 11 10 10 10 9 8 8 8 7 7 7 7 7 6 6 6 6 6 7 7
11 11 11 11 11 11 11 12 12 12 13 13 12 13 13 13 14 14 13 13 14 15 15 14 13 13 13 13 12 11 11 11 11 10 10 9 9 8 7 7 7 7 7 7 6 7 7 7 7
10 11 12 11 11 11 11 11 12 12 12 12 12 12 12 12 13 14 15 14 15 15 15 14 14 13 13 13 12 12 12 12 12 11 10 9 9 9 8 7 7 7 8 8 7 7 7 8 8
10 12 12 12 11 11 12 11 11 11 11 11 11 12 12 12 13 13 14 14 15 15 15 15 14 14 14 13 13 13 12 12 12 12 11 11 10 9 9 8 8 8 8 8 8 8 9 9 9

GEFSSGP_500_meanwind_192.txt.gz
Wind_Speed
8 8 8 9 9 9 9 9 9 9 10 9 8 8 7 7 6 5 5 4 5 5 5 4 4 4 3 2 2 3 2 1 1 0 0 1 1 2 2 2 2 2 2 2 2 2 2 2 2
9 9 9 10 10 10 9 9 10 9 10 9 8 8 8 7 8 7 6 5 5 5 5 5 4 5 4 4 3 3 2 2 1 1 1 2 2 2 3 3 3 3 3 2 2 3 3 3 3
10 9 10 10 11 10 9 10 10 10 10 10 9 9 8 8 7 8 7 6 5 5 5 4 4 5 5 5 4 3 3 3 2 1 1 2 2 3 3 3 4 3 3 3 2 2 3 3 3
11 11 11 11 11 10 10 9 10 10 10 10 9 9 9 9 8 8 7 6 5 5 5 5 5 5 6 5 4 4 3 3 2 2 2 3 3 3 4 4 4 4 3 3 2 2 3 3 4
11 11 12 12 11 11 10 10 10 10 11 10 10 9 9 8 8 8 7 7 6 6 5 5 5 5 5 5 4 4 4 3 3 3 3 3 3 3 4 4 4 3 3 3 3 3 3 4 4
11 11 12 11 12 11 11 11 11 11 11 11 10 10 9 9 9 9 8 7 7 6 6 5 6 6 6 6 6 5 4 4 3 3 4 4 4 3 3 4 4 3 3 3 4 4 4 5 5
11 11 11 11 12 11 11 11 12 12 11 11 11 10 10 10 9 9 9 8 8 8 7 6 7 7 7 7 6 5 4 4 4 4 4 4 4 3 3 4 4 3 4 4 5 5 6 6 6
11 12 11 11 11 11 11 12 12 12 12 12 11 11 11 10 10 9 9 9 9 9 8 8 8 7 7 7 7 5 4 4 4 4 4 4 4 3 3 4 4 4 4 5 5 6 6 6 6
11 12 11 11 11 11 11 11 12 12 11 11 12 11 12 11 10 10 9 10 10 10 9 9 8 8 8 7 6 6 5 4 3 3 3 3 3 3 4 4 4 5 5 5 5 6 6 6 6
11 12 11 11 11 11 11 10 11 11 11 11 11 11 11 11 10 10 10 11 10 10 9 10 9 9 8 7 7 6 5 4 3 2 3 3 3 3 3 3 4 5 5 5 5 6 6 6 7
11 11 12 11 11 11 11 10 10 11 11 11 11 11 12 11 10 10 10 11 11 11 10 11 10 10 9 8 7 5 5 4 3 3 3 3 3 3 3 3 3 4 5 5 5 6 5 6 6
12 12 12 12 11 11 11 10 11 11 11 12 12 12 11 11 11 10 11 11 11 11 11 11 10 9 9 8 6 5 4 4 4 3 4 3 3 3 3 3 3 5 5 5 5 6 6 6 6
11 11 12 12 12 11 10 10 11 10 11 12 12 12 12 12 11 11 11 12 11 11 12 12 10 10 9 8 7 6 5 4 4 4 4 4 3 3 3 3 4 5 5 5 5 5 6 6 6
11 11 12 12 12 12 11 10 11 11 10 11 12 12 12 11 10 11 11 11 11 10 10 10 9 9 9 8 8 7 6 5 4 4 3 3 4 4 3 4 4 5 5 5 5 5 5 5 5
10 12 12 12 13 13 12 11 11 11 11 11 12 12 11 12 11 11 11 12 11 10 10 10 10 10 10 9 8 8 6 5 4 4 3 3 4 4 4 4 4 5 5 5 5 5 5 5 5
9 8 10 10 11 12 12 12 12 12 12 12 12 13 12 11 11 11 11 11 11 11 10 10 10 10 10 9 9 8 8 6 5 4 4 4 4 4 4 4 4 5 5 4 4 5 5 5 5
9 9 9 9 10 11 11 10 11 11 12 12 12 13 12 11 11 10 10 11 11 11 11 10 10 9 9 10 9 9 8 7 6 5 4 4 5 4 4 4 4 5 5 4 4 5 6 6 5
9 9 10 10 10 10 10 10 10 10 11 12 12 12 11 11 10 9 9 9 11 11 11 11 11 9 9 10 9 9 8 7 6 5 5 5 5 5 4 4 4 5 5 4 5 6 6 6 6
10 10 10 10 11 10 11 11 11 11 11 11 10 11 11 11 11 10 9 9 11 11 11 11 11 10 10 9 9 9 9 8 7 6 6 6 5 5 5 5 5 5 4 4 5 6 6 6 5
10 11 11 11 11 11 11 11 12 11 11 11 11 11 11 11 11 11 11 11 12 12 12 12 12 11 10 9 9 9 9 8 8 7 7 6 6 6 6 5 5 5 4 4 5 6 6 5 5
10 10 11 11 12 12 11 11 11 11 11 11 10 10 11 12 13 12 12 12 13 13 12 12 12 12 11 10 9 9 9 9 8 7 7 6 6 6 6 5 4 4 4 5 5 6 6 5 5
9 10 11 11 11 12 12 11 11 12 12 12 11 11 11 11 13 13 13 13 13 14 13 12 12 12 11 11 10 9 9 9 9 8 7 7 6 6 6 5 5 4 4 5 5 5 5 5 5
10 11 11 10 11 12 13 12 11 12 11 12 12 12 12 12 13 13 13 13 13 14 14 13 13 13 12 11 11 10 9 9 8 7 6 6 6 6 6 5 5 4 4 5 5 5 5 5 4
10 11 11 10 10 11 11 12 11 11 10 11 12 12 13 13 13 13 13 13 13 14 14 14 14 14 13 12 12 11 10 9 8 7 7 6 6 5 5 5 5 5 5 5 5 5 5 5 4
10 11 11 11 10 10 10 11 10 11 11 10 11 12 12 13 14 14 14 14 14 14 14 15 15 14 14 13 12 12 10 9 9 8 7 6 5 5 5 5 5 5 6 6 6 5 5 5 5
10 10 11 11 10 10 10 11 9 9 11 11 11 12 12 13 13 13 14 14 14 15 15 15 15 14 14 13 13 12 11 10 9 9 8 7 6 6 6 6 6 6 6 6 5 5 5 5 5
10 10 10 12 11 10 9 10 9 9 10 11 11 12 12 13 13 13 14 14 14 15 16 16 14 14 14 14 13 13 12 10 9 9 9 8 7 7 7 7 7 6 6 6 5 6 6 5 5
11 11 11 12 12 10 9 9 9 9 10 10 10 11 12 12 13 13 14 15 14 14 15 16 15 14 13 13 13 13 12 11 10 9 9 8 8 7 7 6 7 6 6 6 6 6 6 6 6
12 13 12 12 12 12 11 9 8 7 8 9 10 10 11 12 13 13 14 15 15 14 15 15 15 15 13 13 13 13 12 11 10 10 8 9 9 8 7 7 7 7 7 7 7 7 7 7 7
12 12 12 12 11 11 12 11 10 9 8 8 9 9 10 11 12 12 14 15 15 15 15 15 14 14 13 13 13 13 12 11 11 10 10 9 9 9 8 8 8 8 8 8 8 7 7 7 8